Regional Weather Roundup
Issued by NWS Albany, NY

Home | Current Version | Previous Version | Text Only | Print | Product List | Glossary On
Versions: 1 2 3 4 5 6 7 8 9 10 11 12 13 14 15 16 17 18 19 20 21 22 23 24 25 26 27 28 29 30 31 32 33 34 35 36 37 38 39 40 41 42 43 44 45 46 47 48
000
ASUS41 KALY 031810
RWRALY

NEW YORK STATE HOURLY WEATHER ROUNDUP
NATIONAL WEATHER SERVICE ALBANY NY
200 PM EDT FRI JUL 03 2015

NOTE: "FAIR" INDICATES FEW OR NO CLOUDS BELOW 12,000 FEET WITH NO
SIGNIFICANT WEATHER AND/OR NO OBSTRUCTIONS TO VISIBILITY.

NYZ032-033-038>043-046>054-057>066-NYZ062>081-031900-
EAST


CITY           SKY/WX    TMP DP  RH WIND       PRES   REMARKS
ALBANY         MOSUNNY   76  46  34 CALM      29.99F
GLENS FALLS    MOSUNNY   75  48  38 VRB3      29.97F
POUGHKEEPSIE   SUNNY     77  49  37 N6        29.98S
NEWBURGH       SUNNY     75  54  46 VRB5      30.01S
MONTGOMERY     SUNNY     76  55  48 VRB3      29.99F
WHITE PLAINS   SUNNY     77  49  37 VRB6      29.99S
ISLIP          MOSUNNY   79  46  31 NW8       29.97S
NEW YORK CITY  PTSUNNY   79  49  34 NW5       29.97F
CENTRAL PARK   SUNNY     79  51  37 VRB3      30.00F
$$

NYZ005>009-017-018-044>046-055-056-031900-
CENTRAL


CITY           SKY/WX    TMP DP  RH WIND       PRES   REMARKS
FULTON         SUNNY     73  49  42 VRB3      30.00S
SYRACUSE       MOSUNNY   74  49  41 E7        29.99F
ROME           SUNNY     72  46  39 SW7       30.01F
ELMIRA         SUNNY     75  52  44 W3        29.99F
BINGHAMTON     SUNNY     68  41  37 CALM      30.02F
MONTICELLO     SUNNY     73  46  38 W6        30.03S
$$

NYZ026>034-041>043-031900-
NORTH


CITY           SKY/WX    TMP DP  RH WIND       PRES   REMARKS
WATERTOWN      SUNNY     70  52  52 W9        30.00S
FORT DRUM      NOT AVBL
MASSENA        MOSUNNY   75  45  34 W8        29.97F
SARANAC LAKE   SUNNY     70  41  34 S6        29.98F
PLATTSBURGH    SUNNY     73  50  44 SE9       29.95F
$$

NYZ001>004-010>016-019>021-031900-
WEST


CITY           SKY/WX    TMP DP  RH WIND       PRES   REMARKS
NIAGARA FALLS  MOSUNNY   72  47  40 S7        29.98F
BUFFALO        MOSUNNY   75  47  36 CALM      29.98F
DUNKIRK        SUNNY     70  50  49 N13       29.98F
JAMESTOWN      SUNNY     70  50  49 CALM      30.00F
WELLSVILLE     MOSUNNY   71  51  49 E3        30.02F
ROCHESTER      PTSUNNY   74  48  39 S6        29.99F
PENN YAN       SUNNY     72  46  39 SW5       30.00F
$$

             KEY
       WCI = WIND CHILL INDEX
       VSB = VISIBILITY
       HX  = HEAT INDEX
$$



USA.gov is the U.S. government's official web portal to all federal, state and local government web resources and services.